Location: Chantarel
(45.1638°N, 1.7873°E)
Time: 20:42:42
(UTC+00:00)

Helios 1A Rocket - Pass Details

Date: 03 March 2021
Orbit: 563 x 585 km, 98.3° (Epoch: 13 April)

Event Time Altitude Azimuth Distance (km) Brightness Sun altitude
Rises 19:13:12 0° 176° (S) 2,767 6.3 -16.7°
Reaches altitude 10° 19:15:23 10° 181° (S) 1,871 5.5 -17.0°
Maximum altitude 19:19:20 53° 259° (W) 705 3.7 -17.7°
Drops below altitude 10° 19:23:19 10° 337° (NNW) 1,874 5.9 -18.4°
Sets 19:25:30 0° 342° (NNW) 2,774 6.8 -18.8°
